Regional Weather Roundup
Issued by NWS Sioux Falls, SD

Home | Current Version | Previous Version | Text Only | Print | Product List | Glossary Off
Versions: 1 2 3 4 5 6 7 8 9 10 11 12 13 14 15 16 17 18 19 20 21 22 23 24 25 26 27 28 29 30 31 32 33 34 35 36 37 38 39 40 41 42 43 44 45 46 47 48 49 50

000
ASUS43 KFSD 251210
RWRFSD

WEATHER ROUNDUP FOR SE SOUTH DAKOTA/SW MINNESOTA/NW IOWA
NATIONAL WEATHER SERVICE SIOUX FALLS SD
700 AM CDT SAT APR 25 2015

NOTE: "FAIR" INDICATES FEW OR NO CLOUDS BELOW 12,000 FEET WITH NO
SIGNIFICANT WEATHER AND OR OBSTRUCTIONS TO VISIBILITY.


SDZ038>040-050-052>070-251300-
SOUTHEAST SOUTH DAKOTA

CITY           SKY/WX    TMP DP  RH WIND       PRES   REMARKS
BROOKINGS      CLOUDY    43  41  93 E14       29.70R
CHAMBERLAIN    CLOUDY    48  46  93 NE9       29.65R
6HR MIN TEMP:  47; 6HR MAX TEMP:  54;

HURON          CLOUDY    47  44  90 E12       29.68R
6HR MIN TEMP:  47; 6HR MAX TEMP:  53; 6HR PCP: TRACE;

MADISON        CLOUDY    41  41 100 E17       29.67R
MITCHELL       LGT RAIN  49  47  93 E7        29.67R FOG
6HR MIN TEMP:  49; 6HR MAX TEMP:  54; 6HR PCP:  0.07;

SIOUX FALLS    CLOUDY    45  42  89 E17       29.66R
6HR MIN TEMP:  45; 6HR MAX TEMP:  49; 6HR PCP:  0.19;

WINNER         FOG       51  49  92 NE10      29.64R VSB 3/4
YANKTON        CLOUDY    46  43  87 E15       29.62R
$$

MNZ071-072-080-081-089-090-097-098-251300-
SOUTHWEST MINNESOTA

CITY           SKY/WX    TMP DP  RH WIND       PRES   REMARKS
FAIRMONT       CLOUDY    43  14  31 E14       29.72R
JACKSON        CLOUDY    43  37  81 E17       29.71R HAZE
LUVERNE        CLOUDY    45  41  87 E16G23    29.68R
MARSHALL       CLOUDY    43  36  75 E16       29.73R
6HR MIN TEMP:  43; 6HR MAX TEMP:  45; 6HR PCP:  0.09;

MONTEVIDEO     CLOUDY    43  43 100 SE17      29.77R FOG
REDWOOD FALLS  CLOUDY    43  38  82 E13       29.76R
TRACY          CLOUDY    43  40  86 E13G20    29.73R
WORTHINGTON    CLOUDY    43  37  81 E17       29.70R
$$

IAZ001>003-012>014-020>022-031-032-NEZ013-014-SDZ071-251300-
NORTHWEST IOWA

CITY           SKY/WX    TMP DP  RH WIND       PRES   REMARKS
CHEROKEE       CLOUDY    44  42  94 NE13G22   29.64R FOG
DENISON        RAIN      45  45 100 NE16G23   29.56R
ESTHERVILLE    CLOUDY    41  38  89 E17G38    29.69R FOG
LE MARS        CLOUDY    46  43  87 NE15G24   29.64R
ORANGE CITY    CLOUDY    43  39  87 E16G23    29.64R
SHELDON        CLOUDY    45  43  93 E17G26    29.65R
SIOUX CITY     CLOUDY    48  43  82 E18G24    29.59R
6HR MIN TEMP:  47; 6HR MAX TEMP:  56; 6HR PCP: TRACE;

SPENCER        CLOUDY    44  39  82 E20       29.67R HAZE
6HR MIN TEMP:  44; 6HR MAX TEMP:  47;

STORM LAKE     FOG       43  41  93 E20       29.64R VSB 1
$$

ABBREVIATIONS USED IN REMARKS
   TC - TEMPERATURE IN CELSIUS
  WCI - WIND CHILL INDEX
   HX - HEAT INDEX
  VSB - VISIBILITY




USA.gov is the U.S. government's official web portal to all federal, state and local government web resources and services.